Hourly Data Report for July 29, 2021

CAPE RACE (AUT)
NEWFOUNDLAND
Current Station Operator: ECCC - MSC

46°39'36.000" N
53°04'35.000" W
26.50 m
8401000
71800
WRA

Download Data

Hourly Data (July 2021)
Hourly Data Report for July 29, 2021
TIME
LST
Temp Definition
°C
Dew Point Definition
°C
Rel Hum Definition
%
Precip. Amount Definition
mm

Wind Dir Definition
10's deg

Wind Spd Definition
km/h
Visibility Definition
km
Stn Press Definition
kPa
Hmdx Definition


Wind Chill Definition


Weather Definition


00:30 14.3 LegendMM LegendMM LegendMM 22 9   100.80     LegendNANA
01:30 15.1 LegendMM LegendMM LegendMM 24 14   100.79     LegendNANA
02:30 14.6 LegendMM LegendMM LegendMM 23 10   100.75     LegendNANA
03:30 14.5 LegendMM LegendMM LegendMM 22 12   100.75     LegendNANA
04:30 14.7 LegendMM LegendMM LegendMM 25 14   100.69     LegendNANA
05:30 14.7 LegendMM LegendMM LegendMM 24 14   100.64     LegendNANA
06:30 14.9 LegendMM LegendMM LegendMM 25 12   100.66     LegendNANA
07:30 14.5 LegendMM LegendMM LegendMM 23 7   100.66     LegendNANA
08:30 13.5 LegendMM LegendMM LegendMM 20 10   100.66     LegendNANA
09:30 15.7 LegendMM LegendMM LegendMM 26 17   100.64     LegendNANA
10:30 16.1 LegendMM LegendMM LegendMM 26 20   100.66     LegendNANA
11:30 17.1 LegendMM LegendMM LegendMM 26 24   100.66     LegendNANA
12:30 17.0 LegendMM LegendMM LegendMM 26 30   100.66     LegendNANA
13:30 20.1 LegendMM LegendMM LegendMM 28 28   100.65     LegendNANA
14:30 19.4 LegendMM LegendMM LegendMM 25 33   100.67     LegendNANA
15:30 19.4 LegendMM LegendMM LegendMM 26 30   100.68     LegendNANA
16:30 18.9 LegendMM LegendMM LegendMM 26 29   100.72     LegendNANA
17:30 18.0 LegendMM LegendMM LegendMM 26 33   100.77     LegendNANA
18:30 16.2 LegendMM LegendMM LegendMM 26 26   100.82     LegendNANA
19:30 13.7 LegendMM LegendMM LegendMM 25 20   100.87     LegendNANA
20:30 13.1 LegendMM LegendMM LegendMM 25 22   100.94     LegendNANA
21:30 13.8 LegendMM LegendMM LegendMM 26 29   101.05     LegendNANA
22:30 13.4 LegendMM LegendMM LegendMM 25 29   101.09     LegendNANA
23:30 12.8 LegendMM LegendMM LegendMM 25 20   101.08     LegendNANA

Notes on Data Quality.

Legend

  • E = Estimated
  • M = Missing
  • NA = Not Available*
  • [empty] = Indicates an unobserved value
Date modified: